FW9105 Weather Reports


time (UTC)temp
C
wind
direction
speed
KPH
gust
KPH
rain 1hr
cm
rain 24hr
cm
rain mn
cm
humidity
%
barometer
mb
20260505224503 20 223 3.2 8.0 0.00 0.00 0.00 48 1007.4
20260505223004 21 175 3.2 8.0 0.00 0.00 0.00 51 1007.4
20260505221503 21 184 3.2 6.4 0.00 0.00 0.00 50 1007.0
20260505220004 20 171 1.6 6.4 0.00 0.00 0.00 48 1007.3
20260505214502 21 201 3.2 8.0 0.00 0.00 0.00 47 1007.1
20260505213003 21 198 4.8 11.3 0.00 0.00 0.00 45 1007.2
20260505211502 21 200 3.2 11.3 0.00 0.00 0.00 45 1007.2
20260505210004 21 202 6.4 12.9 0.00 0.00 0.00 45 1007.1
20260505204501 21 204 4.8 11.3 0.00 0.00 0.00 43 1007.2
20260505203002 21 163 4.8 9.7 0.00 0.00 0.00 45 1007.5
20260505200004 21 194 4.8 12.9 0.00 0.00 0.00 46 1007.6
20260505193002 21 183 3.2 9.7 0.00 0.00 0.00 47 1008.1
20260505191502 21 192 4.8 11.3 0.00 0.00 0.00 48 1008.5
20260505184501 21 204 4.8 11.3 0.00 0.00 0.00 46 1008.5
20260505183001 21 170 4.8 11.3 0.00 0.00 0.00 49 1008.8
20260505181501 21 190 4.8 11.3 0.00 0.00 0.00 50 1009.0
20260505180007 20 157 6.4 14.5 0.00 0.00 0.00 51 1009.2
20260505174501 21 188 4.8 9.7 0.00 0.00 0.00 51 1009.3
20260505173002 21 190 4.8 8.0 0.00 0.00 0.00 53 1009.4
20260505171501 21 170 4.8 12.9 0.00 0.00 0.00 50 1009.5
20260505170004 20 196 4.8 16.1 0.00 0.00 0.00 52 1009.3
20260505164503 20 128 4.8 14.5 0.00 0.00 0.00 51 1009.8
20260505161501 20 286 3.2 8.0 0.00 0.00 0.00 50 1009.8
20260505153003 18 192 3.2 9.7 0.00 0.00 0.00 58 1010.2
20260505151503 18 203 3.2 8.0 0.00 0.00 0.00 56 1010.3
20260505124501 12 16 3.2 4.8 0.00 0.00 0.00 75 1009.1
20260505123003 11 351 0.0 4.8 0.00 0.00 0.00 75 1008.9
20260505121503 11 348 0.0 0.0 0.00 0.00 0.00 78 1009.2
20260505120003 10 340 0.0 3.2 0.00 0.00 0.00 77 1009.0
20260505114502 11 320 0.0 0.0 0.00 0.00 0.00 74 1008.9
20260505111503 11 219 0.0 3.2 0.00 0.00 0.00 69 1008.5
20260505101500 13 324 1.6 6.4 0.00 0.00 0.00 58 1008.2
20260505100003 13 346 1.6 4.8 0.00 0.00 0.00 59 1008.2
20260505094501 13 304 1.6 4.8 0.00 0.00 0.00 60 1008.3
20260505093003 13 323 0.0 8.0 0.00 0.00 0.00 60 1008.3
20260505091502 13 288 0.0 3.2 0.00 0.00 0.00 60 1008.4
20260505090004 13 250 1.6 4.8 0.00 0.00 0.00 60 1008.3
20260505084500 14 300 0.0 3.2 0.00 0.00 0.00 59 1008.4
20260505083000 14 313 1.6 6.4 0.00 0.00 0.00 59 1008.4
20260505081500 14 178 0.0 8.0 0.00 0.00 0.00 60 1008.4
20260505080000 13 302 1.6 3.2 0.00 0.00 0.00 62 1008.4
20260505074500 13 355 1.6 4.8 0.00 0.00 0.00 62 1008.3
20260505073001 13 288 0.0 6.4 0.00 0.00 0.00 62 1008.3
20260505071459 13 215 0.0 0.0 0.00 0.00 0.00 61 1008.4
20260505070003 13 52 0.0 3.2 0.00 0.00 0.00 61 1008.2
20260505064500 14 155 3.2 8.0 0.00 0.00 0.00 60 1008.3
20260505054500 15 169 3.2 6.4 0.00 0.00 0.00 59 1008.5
20260505053001 15 176 3.2 4.8 0.00 0.00 0.00 59 1008.8
20260505051500 15 175 3.2 4.8 0.00 0.00 0.00 59 1008.8
20260505041503 15 198 4.8 6.4 0.00 0.00 0.00 59 1008.8
20260505040005 15 171 3.2 6.4 0.00 0.00 0.00 59 1008.7
20260505034501 15 169 3.2 4.8 0.00 0.00 0.00 58 1008.8
20260505033001 15 174 1.6 4.8 0.00 0.00 0.00 59 1008.9
20260505031501 15 180 1.6 4.8 0.00 0.00 0.00 58 1008.9
20260505030001 15 167 0.0 1.6 0.00 0.00 0.00 59 1008.8
20260505024501 15 146 0.0 3.2 0.00 0.00 0.00 60 1008.9
20260505023001 15 146 0.0 3.2 0.00 0.00 0.00 61 1008.8
20260505021500 16 144 0.0 3.2 0.00 0.00 0.00 60 1008.8
20260505020005 16 172 1.6 3.2 0.00 0.00 0.00 60 1008.8
20260505014501 16 181 1.6 3.2 0.00 0.00 0.00 59 1008.4
20260505013000 16 181 0.0 3.2 0.00 0.00 0.00 59 1008.4
20260505011500 16 181 1.6 3.2 0.00 0.00 0.00 58 1008.2
20260505010005 17 180 0.0 3.2 0.00 0.00 0.00 59 1008.2
20260505003000 17 180 1.6 3.2 0.00 0.00 0.00 56 1007.8
20260505001502 18 180 0.0 0.0 0.00 0.00 0.00 53 1007.8
20260505000000 18 180 0.0 0.0 0.00 0.00 0.00 51 1007.8
20260504234500 19 180 0.0 0.0 0.00 0.00 0.00 50 1007.7
20260504232959 19 180 0.0 0.0 0.00 0.00 0.00 49 1007.7
20260504231500 19 180 1.6 4.8 0.00 0.00 0.00 49 1007.7
20260504230000 19 173 1.6 3.2 0.00 0.00 0.00 49 1007.7